Reflectivity
21 37 35 26 -3 -20 -20 -20 8 3 8 -20 -20 -20 -20 -20 -20 -20 -19 -2 25 5 -3 -20 2 21 13 10 -20 -20 -20 -20 -20
6 17 -8 8 13 -20 -20 11 10 -16 -20 -20 -20 -20 -20 -20 -20 -20 -20 -6 3 15 -11 -2 -20 -4 -2 -15 -20 -20 -20 15 -20
-9 14 15 5 4 -20 -20 8 -3 -20 -20 -20 -20 -20 -20 -20 -20 -20 -20 21 15 17 5 12 -11 -18 -20 -20 -12 -20 -20 9 11
17 6 -18 -20 -20 -20 -20 -20 -20 -20 -20 -20 -20 -20 -20 -20 -20 -20 -20 -12 18 11 -8 -9 -3 23 15 11 -20 -20 -20 -20 -20
-20 -20 -20 -20 -20 -20 -20 -20 -20 -20 -20 -20 -20 -20 -20 -20 -15 3 9 -2 15 28 9 -12 17 12 -0 -17 -20 -10 -20 -20 -12
-15 -19 -20 -20 -20 -20 -20 -20 -20 -20 -20 -20 -20 -20 -20 -20 -20 -20 22 21 17 14 12 10 20 8 23 -9 10 -18 9 -20 -7
-15 -17 -20 -20 -20 -20 -20 -20 -20 -20 -20 -20 -20 -20 -20 -20 -20 -6 5 -5 -5 12 12 14 6 6 17 27 19 -2 -6 3 1
-6 -4 -9 -20 -20 -20 -8 -20 -20 -20 -20 -20 -20 -20 -20 -20 -20 2 10 12 18 19 19 14 7 13 7 10 14 16 12 14 13
6 -13 -5 -7 -12 -6 -19 -20 -20 -17 -20 -20 -2 -18 -20 -20 -20 -8 -1 6 11 18 18 18 9 9 6 14 12 15 15 16 16
-20 -19 -20 -12 8 13 10 -5 6 -2 2 -13 -18 -3 -20 -20 -20 -20 5 9 3 11 20 19 16 11 9 9 10 8 15 15 13
-20 -20 -20 -20 -20 -20 -20 -20 -20 -20 -20 -20 -20 -20 -20 -20 -20 -20 -17 -18 1 -6 10 14 10 -5 1 6 6 9 7 11 11
-20 -20 -20 -20 -20 -20 -20 -20 -20 -20 -20 -20 -20 -20 -20 -20 -20 -20 -20 -20 -20 -20 -20 9 -18 -20 -20 -18 -10 10 13 11 4
-20 -20 -20 -20 -20 -20 -20 -20 -20 -20 -20 -20 -20 -20 -20 -20 -20 -20 -20 -20 -20 -20 -20 -20 -20 -20 -20 -20 -20 -20 -20 -20 -9
-20 -20 -20 -20 -20 -20 -20 -20 -20 -20 -20 -20 -20 -20 -20 -20 -20 -20 -20 -20 -20 -20 -20 -20 -20 -20 -20 -20 -20 -20 -20 -20 -20
-20 -20 -20 -20 -20 -20 -20 -20 -20 -20 -20 -20 -20 -20 -20 -20 -20 -20 -20 -20 -20 -20 -20 -20 -20 -20 -20 -20 -20 -20 -20 -20 -20
-20 -20 -20 -20 -20 -20 -20 -20 -20 -20 -20 -20 -20 -20 -20 -20 -20 -20 -20 -20 -20 -20 -20 -20 -20 -20 -20 -20 -20 -20 -20 -20 -20
-20 -20 -20 -20 -20 -20 -20 -20 -20 -20 -20 -20 -20 -20 -20 -20 -20 -20 -20 -20 -20 -20 -20 -20 -20 -20 -20 -20 -20 -20 -20 -20 -20
-20 -20 -20 -20 -20 -20 -20 -20 -20 -20 -20 -20 -20 -20 -20 -20 -20 -20 -20 -20 -20 -20 -20 -20 -20 -20 -20 -20 -20 -20 -20 -20 -20
-20 -20 -20 -20 -20 -20 -20 -20 -20 -20 -20 -20 -20 -20 -20 -20 -20 -20 -20 -20 -20 -20 -20 -20 -20 -20 -20 -20 -20 -20 -20 -20 -20
-20 -20 -20 -20 -20 -20 -20 -20 -20 -20 -20 -20 -20 -20 -20 -20 -20 -20 -20 -20 -20 -20 -20 -20 -20 -20 -20 -20 -20 -20 -20 -20 -20
Wind_Speed
20 19 18 19 19 18 17 18 22 23 23 22 21 20 17 14 9 7 7 6 13 15 15 15 17 17 18 17 16 15 15 15 14
20 20 19 18 18 18 18 20 23 22 22 22 21 19 17 9 8 7 6 6 15 14 14 14 15 15 16 15 14 14 12 11 13
19 17 18 18 18 18 19 23 22 22 22 22 21 19 16 10 8 7 5 10 14 15 15 15 13 14 13 13 12 11 11 11 9
18 17 17 18 18 19 20 21 22 22 22 22 22 21 20 11 7 7 4 13 14 15 14 15 15 13 12 11 10 9 10 10 10
18 17 18 18 18 19 20 21 22 21 21 21 20 20 21 13 11 8 7 18 18 18 18 16 17 15 13 12 10 8 8 8 8
8 15 18 19 19 19 20 21 22 22 22 21 20 19 8 11 9 7 16 21 21 21 20 20 20 20 16 14 15 13 11 8 8
10 12 17 18 19 19 20 19 19 14 7 7 14 7 9 10 9 8 21 23 21 19 20 21 22 22 24 23 22 21 18 16 15
4 4 3 4 7 4 7 8 7 9 8 8 8 9 9 7 7 13 22 22 22 19 23 24 24 25 27 27 28 26 23 23 21
5 4 3 4 3 6 7 6 9 11 12 11 11 11 8 6 6 12 21 21 23 24 25 24 24 25 24 24 25 25 24 24 25
5 4 5 5 4 6 7 7 8 11 11 10 12 11 10 10 6 6 19 21 21 23 23 24 25 24 24 23 23 23 24 23 22
6 5 5 5 4 4 7 6 8 8 9 11 10 9 9 9 9 7 8 21 22 22 21 21 22 23 23 23 22 22 21 22 22
6 6 6 4 4 7 7 7 8 9 8 10 9 8 8 8 8 7 7 8 20 22 20 20 22 22 21 20 20 19 20 20 20
7 6 5 4 5 5 6 6 8 7 8 6 6 6 7 8 7 7 6 6 7 13 21 20 20 20 20 19 19 19 19 19 18
7 6 4 5 5 5 6 5 6 9 7 8 6 5 5 6 6 8 8 9 7 6 17 19 19 18 18 19 18 18 18 18 18
7 6 6 4 7 6 5 7 5 4 6 9 7 5 5 5 5 5 6 7 7 6 7 6 8 17 17 17 18 17 16 17 17
6 5 5 4 7 5 6 4 8 5 3 5 6 5 5 6 5 5 5 6 6 7 6 4 4 5 15 15 16 16 16 15 16
6 6 5 5 6 6 5 3 4 3 3 4 3 3 2 3 4 3 5 6 4 5 6 6 5 5 4 8 14 15 15 15 15
6 6 5 5 5 5 5 5 6 4 4 5 4 3 3 2 1 3 3 4 4 4 5 5 5 5 4 6 7 11 14 14 15
5 6 5 6 4 6 5 4 4 4 5 2 5 5 4 4 2 1 1 1 5 4 4 5 5 5 4 7 8 10 13 13 14
5 6 6 6 4 5 6 6 6 3 4 3 2 4 4 4 3 1 2 2 3 2 3 3 4 5 5 4 5 11 13 14 15
Wind_Direction
104 94 87 88 85 89 88 94 97 94 97 91 87 78 69 61 47 38 59 71 90 90 87 81 80 87 91 87 80 78 82 85 83
95 98 95 96 99 95 90 99 95 94 92 89 82 75 68 57 47 34 25 87 88 89 88 86 82 81 84 87 85 83 75 78 92
101 103 105 102 96 94 91 95 95 91 89 85 79 69 61 50 36 32 25 76 83 80 79 81 83 84 84 84 87 83 80 67 97
105 106 102 99 98 96 95 95 96 94 91 84 76 67 58 52 42 34 32 68 75 77 81 80 81 80 78 79 84 79 74 72 71
99 97 99 102 101 97 94 96 92 88 85 81 73 67 57 50 43 44 64 72 71 72 74 74 68 66 70 74 76 76 71 66 67
68 94 97 97 98 99 98 94 93 89 83 76 70 62 55 59 45 33 61 65 64 62 67 63 62 60 69 66 65 59 55 62 53
74 77 88 93 94 95 96 94 90 81 76 69 61 57 59 57 50 43 55 59 57 60 66 64 64 61 57 56 60 57 57 52 49
69 66 52 63 68 73 83 76 67 80 85 78 78 69 60 59 53 46 55 59 55 62 71 70 64 61 59 54 49 49 51 47 48
89 80 63 76 68 69 70 75 81 75 78 81 76 69 62 54 56 43 54 56 54 57 69 69 66 61 58 53 50 46 45 47 44
97 80 80 68 69 77 76 76 81 78 75 74 77 71 64 57 49 36 57 60 57 55 57 64 63 59 56 54 50 46 45 44 44
96 86 76 70 65 58 75 73 82 78 81 72 69 68 68 62 51 42 32 58 57 57 53 60 57 55 53 51 48 44 43 45 44
99 96 83 74 66 84 85 77 82 84 81 78 72 71 59 65 61 51 42 33 53 58 53 60 58 53 51 49 46 47 43 40 40
95 99 91 86 80 85 85 86 90 85 87 81 67 66 73 66 59 62 55 47 40 43 56 55 58 52 48 46 45 43 41 36 36
100 100 92 89 85 74 99 69 91 101 92 93 73 58 59 62 67 62 57 58 51 43 51 47 51 47 45 42 40 40 40 36 35
102 98 96 91 98 88 81 97 57 84 99 93 74 58 54 56 55 59 64 58 53 51 47 31 21 42 40 40 37 34 34 34 33
99 100 95 77 96 104 109 100 101 69 63 98 68 43 48 53 49 51 48 47 41 47 44 39 26 14 31 30 35 29 26 26 27
98 101 100 99 105 91 92 101 114 90 17 119 104 130 28 38 45 58 78 59 36 37 48 41 36 24 5 15 23 23 19 17 17
104 104 109 100 98 103 102 111 110 126 34 60 131 125 169 142 308 46 58 62 42 33 28 27 28 30 5 2 355 15 10 7 7
99 101 98 100 101 101 102 97 111 122 126 88 46 58 114 147 150 359 28 12 38 49 19 2 13 5 352 348 341 2 357 356 354
108 105 103 97 90 88 94 86 80 78 109 109 125 62 60 61 105 150 333 354 8 48 11 8 360 5 3 344 336 355 347 345 343